Temperature
16 16 16 17 17 17 18 20 22 21 21 21 20 21 20 19 19 16 15 15 15 15 15 15 15 15 15 15 15 15 15 15 15 15 15 15 15 15 15 15 15 15 15 15 15 15 15 15 15
15 16 16 17 17 17 19 20 21 21 20 20 19 20 20 19 17 16 15 15 15 14 14 15 15 15 15 15 15 15 15 15 15 15 15 15 15 15 15 15 15 15 15 15 15 15 15 15 15
15 16 17 17 18 18 20 20 20 20 19 19 19 19 19 18 16 15 15 15 14 14 14 14 14 15 15 15 15 15 15 15 15 15 15 15 15 15 15 15 15 15 15 15 15 15 15 14 15
15 16 18 17 17 19 20 20 19 19 19 19 19 18 17 16 15 15 15 14 14 14 14 14 14 14 14 14 15 15 15 14 14 15 15 15 15 15 14 15 15 15 14 14 14 14 14 14 14
16 17 17 17 18 19 20 20 19 19 19 19 19 18 17 15 15 15 14 14 14 14 14 14 14 14 14 14 14 14 14 14 14 14 14 14 14 14 14 14 14 14 14 14 14 14 14 14 14
16 17 16 16 18 19 20 20 19 19 19 19 18 18 16 15 14 14 14 14 13 13 13 13 13 13 14 14 14 14 14 14 14 14 14 14 14 14 14 14 14 14 14 14 14 14 14 14 14
16 16 16 18 18 19 19 19 18 18 18 18 18 17 16 14 14 13 13 13 13 13 13 13 13 13 13 13 13 13 13 13 14 14 14 14 14 14 14 14 14 14 14 14 14 14 14 14 14
15 16 17 17 18 18 18 18 17 17 17 17 17 16 15 14 14 13 13 13 13 13 13 13 13 13 13 13 13 13 13 13 13 13 14 14 14 13 13 13 13 14 14 14 14 14 14 14 14
15 15 15 17 18 18 18 17 17 16 16 16 16 15 14 14 13 13 12 12 12 12 12 12 12 12 12 12 12 12 13 13 13 13 13 13 13 13 13 13 13 13 13 13 13 13 13 13 13
15 14 16 17 17 17 17 17 16 16 15 15 15 15 14 13 13 13 12 12 12 12 12 12 12 12 12 12 12 12 12 12 12 12 13 13 13 13 13 13 13 13 13 13 13 13 13 13 13
15 14 16 16 16 16 16 16 16 15 15 15 15 14 14 13 12 12 12 12 12 12 12 12 12 12 12 12 12 12 12 12 12 12 12 12 12 12 12 13 12 12 13 12 12 12 13 13 13
15 15 16 15 15 15 15 15 15 15 15 15 15 14 14 13 12 12 12 11 11 11 11 12 12 12 12 11 11 11 11 11 12 12 12 12 12 12 12 12 12 12 12 12 12 12 12 12 12
15 15 15 15 14 14 14 14 14 14 14 14 14 14 13 13 12 12 11 11 11 11 11 11 11 11 11 11 11 11 11 11 11 11 11 11 11 12 12 12 12 12 12 12 12 12 12 12 12
15 14 15 14 14 14 13 13 13 14 14 14 14 13 13 12 12 12 11 11 11 11 11 11 11 11 11 11 11 11 11 11 11 11 11 11 11 11 11 11 11 11 11 11 12 11 11 11 11
14 13 13 14 14 14 13 12 13 14 14 14 13 13 13 12 12 11 11 11 11 10 11 11 11 11 11 11 11 11 11 11 11 11 10 11 11 11 11 11 11 11 11 11 11 11 11 11 11
14 13 13 14 14 13 12 11 14 14 14 14 13 13 13 12 12 11 11 11 10 10 10 10 10 10 10 10 10 10 10 10 10 10 10 10 10 10 10 10 10 11 11 11 11 11 11 11 11
13 12 13 14 14 14 12 12 14 14 14 13 13 13 12 12 11 11 11 10 10 10 10 10 10 10 10 10 10 10 10 10 10 10 10 10 10 10 10 10 10 10 10 10 10 10 10 10 10
12 13 14 14 14 13 12 12 13 14 14 13 13 13 13 12 11 11 11 10 10 10 10 10 10 10 10 10 10 10 10 10 10 10 10 10 10 10 10 10 10 10 10 10 10 10 10 10 10
13 13 13 14 14 13 12 12 13 13 13 13 13 13 12 12 11 11 10 10 10 10 10 9 9 9 9 10 10 10 10 10 9 9 9 9 9 9 9 9 9 9 9 10 10 9 9 9 9
13 12 12 13 14 13 12 12 13 13 13 13 13 13 12 12 11 11 10 10 9 9 9 9 9 9 9 9 9 9 9 9 9 9 9 9 9 9 9 9 9 9 9 9 9 9 9 9 9
12 12 12 12 13 12 11 11 12 13 13 13 13 13 12 12 11 10 10 9 9 9 9 9 9 9 9 9 9 9 9 9 9 9 9 9 9 8 8 8 8 8 8 8 8 8 8 8 8
11 12 12 11 10 10 11 9 11 12 12 12 12 12 12 11 11 10 9 9 8 8 9 9 9 8 9 9 9 8 8 8 8 8 8 8 8 8 8 8 8 8 8 8 8 8 8 8 8
11 11 11 11 10 10 11 9 10 12 12 12 11 12 11 11 10 10 9 8 8 8 8 8 8 8 8 8 8 8 8 8 8 8 8 8 8 8 8 8 8 7 7 7 7 7 7 7 8
10 10 10 10 9 8 10 9 10 11 12 12 11 11 11 10 10 9 9 8 8 8 8 8 8 8 8 8 8 8 7 7 7 7 7 7 7 7 7 7 7 7 7 7 7 7 7 7 7
9 9 8 8 8 8 10 10 9 12 12 12 11 11 11 10 9 9 8 8 7 7 7 7 7 7 7 7 7 7 7 7 7 7 7 7 7 7 7 7 7 7 7 7 7 7 7 7 7
9 9 8 8 8 9 10 9 10 12 11 12 11 11 10 9 9 8 8 7 7 7 7 7 7 7 7 7 7 7 7 7 7 7 7 7 7 7 6 6 6 6 6 6 7 7 7 6 6
9 8 9 8 8 8 9 10 11 11 10 10 10 10 9 9 8 8 7 7 7 7 6 6 6 6 7 7 6 6 6 6 6 6 6 6 6 6 6 6 6 6 6 6 6 6 6 6 6
8 8 7 7 7 8 9 10 9 9 9 9 9 9 9 8 8 7 7 7 6 6 6 6 6 6 6 6 6 6 6 6 6 6 6 6 6 6 6 6 6 6 6 6 6 6 6 6 6
6 7 7 7 7 7 8 8 10 9 9 9 8 9 8 8 7 7 7 6 6 6 6 5 5 5 6 6 6 6 5 5 5 5 6 5 5 5 5 5 5 5 5 5 5 5 5 5 5
7 7 6 5 6 7 6 7 10 9 9 8 8 8 8 7 7 7 6 6 5 5 5 5 5 5 5 5 5 5 5 5 5 5 5 5 5 5 5 5 5 5 5 5 5 5 5 5 5
Wind_Speed
13 12 7 2 3 4 4 4 1 4 4 6 7 5 5 5 4 6 4 6 7 8 9 9 8 7 7 7 7 6 6 5 5 4 4 5 5 6 6 5 6 6 7 7 8 8 9 10 10
11 7 4 3 4 4 4 5 2 5 5 5 4 3 2 3 6 6 5 4 5 7 9 8 7 6 6 6 6 6 5 5 4 4 4 4 4 5 5 5 5 6 6 7 8 8 9 10 10
9 7 4 3 3 3 1 4 5 8 6 2 1 1 2 3 6 5 4 3 5 7 9 8 7 6 6 6 6 5 5 4 4 4 3 3 3 4 4 5 5 6 7 8 8 9 9 9 10
5 3 3 3 5 3 2 4 5 5 4 1 2 2 2 5 4 5 5 3 5 7 8 8 7 6 5 5 5 4 4 4 3 3 3 2 2 3 4 5 5 6 8 8 8 9 9 9 9
4 3 4 4 5 4 1 5 4 1 4 3 2 2 4 5 7 7 4 4 4 5 7 8 7 6 5 4 4 4 3 3 3 2 2 2 2 3 4 5 6 7 7 8 8 9 9 8 8
3 3 3 5 4 4 2 4 2 3 2 3 2 1 3 7 7 5 4 3 3 5 6 6 6 6 5 4 4 4 3 3 2 2 2 1 1 2 3 5 6 7 7 7 8 8 8 8 8
3 3 4 5 3 2 3 4 1 2 2 1 1 1 4 7 6 4 3 2 3 4 5 4 5 5 5 4 4 4 3 2 2 1 1 1 2 2 3 5 7 7 7 8 8 8 8 8 8
3 3 4 4 4 2 3 4 1 3 2 2 1 1 2 5 6 4 3 2 2 3 3 3 3 4 5 4 4 4 3 2 2 2 2 2 2 3 3 4 7 8 8 8 8 7 7 8 8
3 3 3 2 2 1 5 3 2 2 3 1 1 2 4 6 5 4 2 1 1 2 2 2 2 3 3 3 4 4 4 3 3 2 3 2 2 3 4 4 7 8 8 8 8 7 7 8 7
3 3 2 2 4 3 2 1 2 2 3 3 2 2 5 5 4 4 3 2 2 2 2 2 2 2 2 1 2 3 3 3 2 2 3 3 3 3 3 5 7 8 9 9 9 8 8 7 6
2 2 2 2 3 3 1 2 2 4 5 5 4 4 5 4 4 3 3 3 2 1 1 2 2 2 2 1 1 1 1 2 1 1 1 1 2 2 2 3 5 7 8 7 8 8 7 6 6
3 3 3 2 1 0 2 3 4 6 5 2 1 2 4 4 4 3 3 2 2 2 1 2 2 2 2 2 0 1 1 1 1 0 1 0 1 1 1 2 3 5 5 5 5 5 6 6 6
6 4 3 3 2 3 4 6 6 7 6 3 1 1 3 4 4 3 3 3 2 1 1 3 3 2 3 2 1 1 1 1 1 1 1 1 1 1 1 1 2 3 4 4 4 3 4 4 4
2 3 5 5 5 4 6 8 7 8 6 5 4 4 4 4 3 3 3 3 2 2 1 2 3 3 2 2 2 1 1 1 1 1 1 2 1 1 2 1 2 2 3 4 4 3 3 3 2
3 4 6 7 8 4 4 9 10 9 6 6 6 6 6 5 4 4 3 3 3 2 2 2 2 2 3 3 3 2 2 2 1 1 2 2 2 2 1 2 2 2 3 3 3 4 3 3 3
5 5 6 6 8 6 5 9 5 7 9 8 6 6 5 5 4 4 4 3 3 2 2 3 2 2 2 3 2 2 2 2 2 2 2 3 3 3 2 2 2 2 3 2 2 3 3 3 3
6 6 7 4 7 6 7 7 4 4 7 7 6 6 5 5 4 4 4 4 3 3 3 3 3 2 2 2 2 2 1 1 1 2 2 2 3 3 2 2 2 3 2 2 2 2 3 3 3
4 6 6 5 6 6 8 9 6 4 6 7 6 5 5 5 5 3 3 4 3 3 3 3 3 3 2 2 1 1 1 1 1 1 2 3 3 3 2 1 2 2 2 2 2 2 2 3 3
7 8 8 6 3 5 9 11 9 7 6 7 6 5 5 5 4 4 3 4 3 2 2 3 3 2 2 2 2 2 1 1 1 1 2 3 3 3 3 2 2 1 2 3 4 3 4 3 3
9 10 10 6 2 4 8 11 9 8 8 7 6 6 5 4 4 4 3 3 3 3 2 3 3 3 2 2 1 2 1 1 1 1 1 3 3 3 3 3 2 2 2 3 4 4 3 2 2
10 9 8 7 6 6 6 9 8 7 7 8 7 5 4 4 4 4 4 2 2 2 3 2 3 3 3 3 1 1 1 1 1 1 2 2 3 3 3 4 3 2 3 4 4 4 3 4 2
8 4 6 7 6 5 4 6 6 6 8 9 8 6 5 4 4 4 4 3 2 1 1 2 2 3 3 3 3 3 2 2 2 2 2 2 3 3 4 4 4 3 3 4 4 3 3 5 4
5 3 6 8 8 7 6 6 7 5 7 8 8 6 5 4 4 4 4 3 2 2 2 1 1 2 2 3 3 3 3 2 2 2 2 2 2 2 3 4 4 3 3 4 4 4 4 4 4
4 5 7 6 4 7 9 8 6 5 5 6 7 6 5 5 4 4 4 4 3 2 2 1 1 1 2 3 3 4 4 3 3 2 2 2 2 2 3 3 4 3 3 3 4 4 5 4 4
4 3 2 3 5 7 5 6 7 3 3 5 6 6 5 5 4 4 4 3 3 3 2 1 1 1 1 2 2 3 3 3 4 3 3 3 2 2 3 3 3 3 3 3 4 4 4 4 5
6 5 4 4 4 3 3 7 5 4 6 7 6 6 5 5 4 4 3 3 3 3 2 1 1 1 1 1 2 2 2 2 2 3 3 3 3 3 3 3 3 3 4 4 4 4 4 4 4
4 5 4 3 4 4 6 5 3 4 6 6 5 5 4 4 3 3 3 3 3 2 2 2 1 1 1 1 1 1 1 2 2 2 2 2 2 2 2 2 3 3 3 4 4 4 4 4 4
4 4 2 4 4 6 6 6 3 4 4 4 4 4 3 3 3 3 3 2 2 2 2 1 1 1 1 1 1 1 1 2 2 2 3 3 3 3 3 3 3 3 3 3 3 3 4 4 4
3 3 4 4 4 3 4 2 2 4 2 2 2 3 3 2 2 2 2 2 2 1 2 1 1 1 1 1 1 1 1 1 1 2 2 3 3 3 4 4 4 4 4 4 4 5 5 6 5
3 3 3 3 4 4 4 3 4 5 3 3 2 2 2 2 1 1 1 2 2 1 1 1 1 1 1 1 1 2 2 1 1 2 2 2 3 3 3 3 4 4 4 4 5 5 5 6 6
Wind_Direction
290 258 243 244 240 231 233 242 212 84 47 37 32 19 9 5 30 97 121 73 98 111 115 118 114 112 108 103 96 90 95 101 101 100 102 105 118 130 127 125 120 117 118 120 116 116 114 112 110
290 272 254 238 242 231 226 212 181 92 76 56 40 12 6 54 78 96 90 63 92 107 111 117 118 116 112 110 104 95 98 104 105 102 102 107 115 128 133 133 132 127 122 122 118 118 117 115 114
273 268 252 238 242 251 285 65 83 87 84 98 117 339 334 49 79 87 77 65 84 93 104 112 118 119 117 114 111 100 94 99 104 106 110 116 121 135 141 136 135 133 128 123 123 123 121 119 120
267 240 245 250 251 273 319 76 74 108 109 144 163 139 94 55 58 79 79 63 91 92 99 112 120 119 116 116 113 107 97 99 101 103 111 122 132 130 143 142 132 131 130 128 130 129 129 125 125
251 251 231 232 241 257 352 69 73 158 152 187 219 159 111 83 79 81 70 58 89 97 99 116 125 127 125 123 120 114 105 101 105 104 109 117 132 129 137 144 135 130 129 127 132 133 134 133 132
253 245 239 235 226 208 151 99 136 248 199 173 202 202 116 108 93 83 78 68 82 98 97 113 123 130 132 131 133 132 122 108 112 130 128 113 146 147 145 150 145 140 137 139 139 141 141 141 139
270 257 252 264 258 227 122 91 198 235 240 168 140 184 129 112 97 91 83 84 80 92 101 113 135 136 134 139 147 150 145 138 137 154 152 137 145 158 155 161 159 155 149 146 141 143 147 147 143
296 289 253 246 244 264 98 101 30 329 308 49 77 227 127 115 103 96 95 95 93 106 115 117 128 137 142 149 154 165 167 175 172 164 161 157 166 173 166 166 169 164 160 155 149 145 147 150 149
279 257 247 265 258 112 104 133 144 31 324 345 98 44 73 107 112 116 118 109 142 130 135 123 119 118 126 152 162 172 177 187 185 175 176 172 179 179 179 181 171 168 166 162 158 152 150 146 154
230 237 247 355 6 29 88 168 180 185 240 231 192 151 119 128 144 157 168 175 182 180 159 141 130 107 101 125 148 164 175 173 187 191 179 191 189 172 166 173 176 172 169 166 163 162 153 147 153
223 232 283 335 24 17 349 272 254 233 236 229 205 177 149 155 166 177 192 194 191 176 172 148 139 131 121 84 78 113 126 132 175 194 197 197 164 152 133 135 163 166 164 162 162 161 161 161 158
235 243 257 287 44 345 264 257 254 242 250 311 345 145 161 180 189 196 206 205 186 186 188 168 148 153 144 124 70 96 74 81 76 242 220 72 102 125 139 152 159 159 163 160 160 166 162 163 160
222 246 251 245 235 231 258 255 260 255 255 262 290 197 202 197 196 195 203 204 194 201 204 172 151 162 155 149 165 135 96 82 132 154 190 155 122 148 130 136 150 168 162 154 156 165 154 150 155
243 245 248 231 225 228 245 255 248 246 234 228 212 206 212 211 210 205 198 203 201 205 205 165 164 169 161 162 169 165 129 137 144 148 171 153 134 137 149 147 153 159 163 162 163 162 145 139 129
255 265 255 227 216 213 244 255 232 232 220 221 215 209 208 205 210 211 193 196 200 207 187 161 172 173 178 182 180 161 153 147 149 172 178 153 139 142 145 161 161 141 152 157 154 143 130 133 121
230 239 244 210 197 176 198 257 233 203 210 223 221 211 204 202 204 199 186 188 191 188 171 162 163 163 188 181 176 169 166 167 172 175 177 160 152 155 146 158 160 139 134 129 151 151 139 135 125
218 239 241 221 188 180 206 257 247 186 199 220 223 214 200 200 204 196 183 178 181 183 172 162 150 162 178 176 172 165 156 182 174 168 165 164 157 153 131 154 143 136 132 144 157 148 142 135 120
233 248 256 240 188 198 224 249 254 232 208 221 221 209 197 198 198 184 172 165 166 172 169 157 154 162 149 140 138 133 166 166 114 137 161 163 153 149 126 136 137 132 152 152 145 141 116 128 129
279 271 269 268 210 217 242 252 248 235 223 225 222 210 200 197 173 158 149 146 147 160 168 165 164 166 138 142 165 168 194 184 183 190 166 157 153 150 129 136 147 150 168 162 144 135 123 111 110
256 268 276 283 248 244 266 267 257 232 223 213 211 212 194 176 163 147 135 139 156 168 176 173 161 157 157 177 179 167 161 169 193 192 151 153 156 152 142 137 152 163 166 164 158 147 138 142 138
248 249 265 281 298 256 268 279 241 222 214 206 205 200 182 172 167 150 137 119 135 161 171 175 164 165 170 167 148 131 122 142 180 171 177 172 168 158 145 143 155 172 171 174 172 163 151 160 173
256 259 272 276 279 265 227 277 254 212 207 202 195 186 181 167 152 142 139 141 157 162 149 158 163 162 165 162 168 179 183 197 202 181 177 171 172 169 157 153 161 175 176 176 178 163 162 162 173
266 293 268 264 262 271 241 247 265 212 216 197 182 170 158 146 140 139 138 143 136 119 123 146 163 162 166 177 184 189 200 205 186 168 167 173 178 176 160 157 162 177 183 181 177 167 170 174 176
286 274 257 247 246 250 229 219 265 216 204 170 154 147 146 134 125 127 122 121 114 104 106 133 151 164 165 180 195 191 196 199 189 184 180 184 177 179 172 169 171 178 180 181 177 177 178 181 179
258 257 246 223 218 239 209 213 244 222 133 131 133 140 137 131 129 127 120 122 121 115 109 111 142 171 172 185 204 195 191 198 202 199 190 190 190 190 191 187 182 182 184 183 178 175 181 179 179
234 235 223 234 242 263 210 226 234 138 104 104 109 115 117 121 129 130 130 132 133 131 133 144 199 199 187 197 208 197 191 192 206 203 190 189 198 199 193 185 191 189 186 190 184 178 184 181 180
246 229 259 276 288 269 239 218 190 120 117 115 114 114 122 124 126 134 134 134 139 145 156 169 202 201 195 221 204 197 198 198 205 200 191 191 194 190 179 186 198 200 191 190 184 187 187 184 187
276 290 242 220 239 252 252 227 212 152 138 137 141 140 126 121 130 132 135 135 140 148 153 146 191 209 200 203 209 224 208 210 218 204 198 190 193 184 179 195 205 204 196 195 190 189 188 192 199
228 234 235 246 251 249 264 269 56 101 105 142 136 127 124 133 141 132 130 132 136 145 161 163 192 188 212 210 201 206 221 215 203 199 202 196 191 183 187 197 204 208 201 195 196 195 187 194 203
231 231 224 233 257 251 260 266 63 70 57 51 61 77 93 102 103 109 117 132 142 171 177 174 177 191 211 213 206 201 202 199 203 211 207 191 187 190 192 194 199 206 204 200 198 198 192 193 199
Height
1491 1492 1495 1497 1499 1500 1496 1487 1480 1482 1484 1487 1489 1490 1492 1495 1498 1508 1508 1506 1506 1506 1507 1508 1509 1511 1512 1514 1515 1516 1517 1519 1520 1521 1522 1523 1524 1525 1526 1527 1529 1530 1531 1532 1533 1534 1535 1536 1537
1491 1494 1497 1497 1499 1501 1494 1484 1482 1483 1487 1490 1492 1493 1494 1497 1500 1503 1504 1505 1506 1506 1506 1507 1509 1510 1512 1513 1514 1516 1517 1518 1520 1521 1522 1523 1524 1525 1526 1527 1528 1530 1531 1532 1533 1534 1535 1536 1537
1492 1494 1497 1494 1494 1494 1489 1482 1482 1485 1489 1492 1494 1496 1497 1499 1500 1502 1503 1504 1505 1506 1506 1507 1508 1510 1511 1512 1514 1515 1516 1518 1519 1520 1522 1523 1524 1525 1526 1527 1528 1529 1531 1532 1533 1534 1535 1536 1538
1494 1496 1495 1496 1494 1487 1483 1483 1484 1487 1491 1493 1494 1496 1498 1501 1501 1502 1503 1504 1504 1505 1505 1506 1508 1509 1510 1511 1513 1514 1516 1517 1518 1520 1521 1522 1523 1524 1525 1526 1527 1529 1530 1531 1532 1534 1535 1536 1538
1494 1495 1495 1495 1491 1486 1482 1483 1486 1488 1491 1493 1494 1495 1498 1500 1500 1501 1502 1503 1503 1504 1504 1506 1507 1508 1509 1510 1512 1513 1515 1516 1517 1519 1520 1521 1522 1523 1524 1526 1527 1528 1529 1531 1532 1533 1534 1536 1537
1495 1492 1496 1496 1488 1483 1483 1485 1488 1489 1490 1492 1494 1495 1498 1499 1500 1501 1501 1502 1503 1503 1503 1505 1506 1507 1508 1509 1511 1512 1513 1515 1516 1517 1519 1520 1521 1522 1523 1525 1526 1527 1528 1530 1531 1533 1534 1535 1537
1495 1492 1492 1489 1487 1484 1483 1485 1488 1489 1490 1492 1493 1495 1497 1498 1499 1500 1500 1501 1501 1502 1502 1503 1505 1506 1507 1508 1509 1510 1512 1513 1514 1516 1517 1518 1520 1521 1522 1523 1525 1526 1527 1529 1530 1532 1533 1535 1536
1492 1492 1489 1487 1486 1485 1484 1487 1489 1491 1491 1492 1493 1495 1496 1497 1497 1498 1499 1500 1500 1501 1501 1502 1503 1504 1505 1506 1507 1509 1510 1511 1513 1514 1515 1516 1518 1519 1520 1522 1523 1525 1526 1528 1529 1531 1533 1534 1536
1492 1495 1491 1486 1485 1484 1485 1487 1490 1491 1492 1492 1493 1494 1495 1495 1496 1497 1498 1499 1499 1500 1500 1501 1502 1503 1504 1504 1506 1507 1508 1509 1511 1512 1513 1515 1516 1517 1518 1520 1522 1523 1525 1526 1528 1530 1531 1533 1535
1492 1494 1488 1484 1484 1484 1486 1488 1489 1491 1491 1492 1492 1493 1494 1494 1495 1496 1496 1497 1498 1498 1499 1499 1500 1501 1502 1503 1504 1505 1506 1507 1509 1510 1511 1512 1514 1515 1516 1518 1519 1521 1523 1525 1526 1528 1530 1532 1534
1489 1489 1486 1485 1485 1486 1487 1488 1489 1490 1490 1490 1490 1491 1492 1493 1493 1494 1494 1495 1496 1496 1497 1497 1498 1499 1500 1501 1502 1503 1504 1505 1506 1508 1509 1510 1512 1513 1514 1515 1517 1519 1521 1523 1524 1526 1528 1530 1532
1487 1486 1486 1486 1487 1487 1488 1488 1488 1488 1488 1488 1488 1489 1490 1490 1491 1492 1492 1493 1493 1493 1494 1495 1496 1497 1498 1499 1500 1501 1502 1503 1504 1506 1507 1508 1509 1510 1512 1513 1515 1517 1519 1520 1522 1524 1526 1528 1530
1486 1485 1485 1486 1486 1487 1488 1487 1487 1485 1486 1486 1486 1487 1488 1488 1489 1490 1490 1491 1491 1491 1492 1492 1494 1494 1496 1497 1498 1499 1500 1501 1502 1503 1505 1506 1507 1508 1509 1511 1512 1514 1517 1518 1520 1522 1524 1526 1528
1484 1484 1484 1484 1485 1486 1486 1485 1485 1481 1483 1483 1484 1485 1486 1486 1487 1488 1488 1488 1488 1489 1489 1490 1491 1492 1493 1494 1496 1497 1498 1499 1500 1501 1502 1503 1504 1505 1507 1508 1510 1512 1514 1516 1518 1520 1522 1524 1526
1484 1485 1483 1481 1482 1483 1485 1483 1480 1478 1479 1480 1481 1482 1483 1483 1484 1484 1485 1486 1486 1486 1486 1488 1488 1490 1491 1492 1493 1494 1496 1497 1498 1499 1500 1501 1502 1503 1504 1505 1507 1510 1512 1514 1516 1518 1520 1522 1524
1484 1484 1484 1477 1477 1480 1486 1482 1473 1473 1475 1477 1478 1479 1480 1480 1481 1482 1482 1482 1483 1483 1484 1485 1486 1487 1488 1489 1491 1492 1493 1495 1496 1497 1498 1499 1500 1501 1502 1504 1505 1508 1510 1512 1513 1516 1518 1520 1522
1482 1484 1479 1476 1474 1475 1480 1478 1471 1470 1472 1473 1474 1476 1477 1478 1479 1479 1480 1480 1481 1481 1482 1482 1483 1484 1485 1487 1488 1490 1491 1492 1493 1494 1495 1496 1497 1499 1500 1502 1503 1505 1507 1509 1511 1513 1515 1517 1519
1481 1478 1474 1473 1471 1473 1476 1473 1470 1469 1469 1470 1471 1472 1473 1475 1476 1477 1477 1478 1478 1479 1479 1480 1481 1482 1483 1484 1486 1487 1488 1489 1491 1491 1492 1493 1494 1496 1498 1500 1501 1503 1505 1507 1509 1511 1513 1515 1517
1475 1474 1473 1470 1468 1471 1471 1469 1466 1465 1466 1466 1467 1469 1470 1471 1473 1474 1475 1475 1476 1476 1476 1477 1478 1479 1480 1481 1483 1484 1485 1486 1488 1489 1490 1491 1492 1494 1496 1497 1499 1500 1502 1504 1506 1508 1510 1512 1514
1475 1475 1473 1469 1466 1469 1469 1466 1461 1460 1461 1462 1463 1465 1467 1468 1470 1471 1472 1472 1473 1473 1474 1475 1476 1477 1478 1479 1480 1482 1483 1484 1485 1486 1487 1488 1490 1491 1493 1494 1496 1498 1499 1501 1503 1505 1507 1509 1512
1472 1474 1474 1472 1469 1467 1470 1466 1458 1455 1456 1458 1460 1462 1463 1465 1467 1468 1469 1470 1471 1471 1472 1472 1473 1474 1475 1477 1478 1479 1480 1481 1482 1483 1484 1486 1487 1489 1490 1491 1493 1495 1497 1498 1500 1502 1504 1506 1509
1472 1470 1471 1472 1476 1475 1470 1477 1458 1452 1453 1453 1455 1458 1460 1462 1464 1465 1466 1467 1468 1469 1469 1470 1471 1472 1473 1474 1475 1476 1477 1478 1479 1480 1481 1483 1484 1486 1487 1489 1491 1492 1494 1496 1498 1500 1502 1504 1505
1470 1469 1470 1471 1473 1475 1468 1474 1461 1450 1450 1450 1452 1455 1457 1460 1462 1463 1464 1465 1466 1467 1467 1468 1469 1469 1470 1471 1472 1473 1474 1475 1477 1478 1479 1480 1481 1483 1484 1486 1488 1489 1491 1493 1495 1496 1499 1501 1502
1470 1471 1470 1470 1474 1478 1465 1470 1461 1450 1446 1446 1449 1452 1455 1458 1460 1461 1462 1463 1464 1465 1465 1466 1467 1467 1468 1469 1470 1470 1471 1473 1473 1474 1476 1477 1478 1480 1481 1483 1484 1486 1488 1490 1491 1493 1495 1497 1499
1472 1476 1478 1477 1477 1471 1457 1461 1458 1443 1442 1444 1448 1451 1453 1456 1458 1459 1460 1461 1462 1462 1463 1464 1464 1465 1466 1466 1467 1468 1469 1470 1470 1471 1473 1474 1475 1476 1478 1480 1481 1483 1485 1486 1488 1489 1491 1493 1495
1472 1472 1478 1478 1472 1464 1458 1460 1450 1441 1441 1443 1447 1450 1453 1455 1457 1458 1459 1460 1460 1461 1461 1462 1462 1463 1463 1464 1465 1465 1466 1467 1468 1469 1470 1471 1472 1473 1475 1477 1478 1479 1481 1483 1484 1486 1488 1489 1491
1469 1470 1467 1472 1468 1469 1458 1447 1442 1441 1443 1445 1447 1450 1452 1454 1456 1457 1458 1459 1459 1459 1459 1460 1460 1460 1461 1462 1462 1463 1464 1464 1465 1466 1467 1468 1469 1471 1472 1473 1475 1476 1478 1479 1481 1482 1484 1486 1487
1471 1469 1471 1473 1473 1467 1452 1447 1449 1446 1446 1446 1448 1450 1452 1454 1455 1456 1457 1457 1457 1458 1458 1458 1458 1458 1459 1459 1459 1460 1461 1462 1463 1463 1464 1465 1467 1468 1469 1470 1471 1473 1474 1476 1477 1479 1480 1482 1484
1472 1472 1471 1471 1468 1469 1462 1456 1442 1444 1445 1446 1448 1449 1451 1453 1454 1455 1455 1455 1456 1456 1456 1455 1456 1456 1456 1456 1456 1457 1458 1459 1460 1460 1461 1462 1463 1464 1465 1467 1468 1469 1470 1472 1473 1475 1476 1478 1479
1468 1469 1471 1476 1471 1466 1465 1460 1443 1444 1445 1446 1448 1449 1450 1451 1452 1453 1453 1454 1453 1453 1453 1453 1453 1453 1453 1454 1454 1454 1455 1456 1456 1457 1458 1459 1460 1461 1462 1463 1464 1465 1466 1468 1469 1471 1472 1473 1475